[[{"header":{"parameterUnit":"m.s-1","parameterCategory":2,"la1":30.2992,"la2":30.254,"lo1":-89.0895,"lo2":-89.0443,"dy":0.0025,"dx":0.0025,"nx":19,"ny":19,"refTime":"2026-04-15T21:00:00:Z","depth":"0","parameterNumber":2,"parameterNumberName":"U-component_of_CURRENTS"},"data":[0,0,0,0.0973,0.0972,0.0886,0.0886,0.0699,0.0698,0,0,0,0,0,0,0,0,0,0,0,0.1,0.1,0.0973,0.0972,0.0886,0.0886,0.07,0.0698,0,0,0,0,0,0,0,0,0,0,0,0.1,0.1,0.1,0.0972,0.0887,0.0886,0.07,0.0778,0,0,0,0,0,0,0,0,0,0,0.0868,0.0907,0.1,0.1,0.0972,0.0887,0.0886,0.0782,0.0773,0.0725,0,0.0729,0,0.0719,0.0686,0.0685,0,0,0,0.0946,0.0915,0.0903,0.1,0.0971,0.0887,0.0918,0.0777,0.0767,0.0712,0.0726,0.072,0.0716,0.0685,0.0684,0.0471,0.047,0,0,0.0951,0.0965,0.0911,0.0898,0.0969,0.0921,0.0915,0.0771,0.076,0.0725,0.0715,0.0713,0.0684,0.0682,0.0472,0.0471,0,0,0,0.0982,0.0968,0.0961,0.0905,0.0901,0.0919,0.0913,0.0766,0.0768,0.0714,0.0711,0.0683,0.068,0.0473,0.0471,0.0535,0,0,0,0.0984,0.0989,0.0963,0.0968,0.0905,0.0842,0.0911,0.0778,0.0762,0.0712,0.0683,0.0679,0.0474,0.0472,0.0536,0.0618,0,0,0,0.1001,0.099,0.099,0.0969,0.0946,0.0845,0.0837,0.0774,0.0761,0.0685,0.0678,0.0475,0.0472,0.0537,0.0616,0.0797,0,0,0,0.1003,0.101,0.099,0.0978,0.0947,0.0851,0.0837,0.0753,0.0687,0.0682,0.0474,0.0472,0.0537,0.0615,0.0793,0.0999,0.1034,0,0,0.1015,0.1011,0.1001,0.0981,0.091,0.086,0.076,0.0681,0.063,0.0514,0.0509,0.0536,0.0616,0.0796,0.0859,0.09,0,0,0,0.1005,0.1004,0.0971,0.0931,0.0852,0.0778,0.0685,0.0639,0.0549,0.0587,0.0468,0.0517,0.0631,0.0742,0.0771,0.0762,0.046,0.0461,0.0461,0.1022,0.0988,0.095,0.0891,0.0821,0.07,0.0653,0.0568,0.0504,0.0468,0.0516,0.0627,0.0735,0.0763,0.0744,0.0426,0.0426,0.0426,0.0426,0.1028,0.1007,0.0949,0.0916,0.0822,0.074,0.0618,0.0587,0.0599,0.0488,0.0597,0.0735,0.0802,0.0769,0.0429,0.0429,0.0429,0.0428,0.0428,0.1035,0.1024,0.1017,0.0971,0.0907,0.08,0.081,0.0738,0.0706,0.0766,0.0989,0.099,0.1025,0.0862,0.0863,0.0864,0.0865,0.0866,0.0867,0.1049,0.1037,0.1064,0.1027,0.102,0.1,0.0954,0.1005,0.1127,0.1117,0.1119,0.1049,0.0763,0.0818,0.0884,0.0881,0.0878,0.0877,0.0876,0.1045,0.1085,0.1123,0.1144,0.1143,0.1167,0.1175,0.1387,0.1497,0.1631,0.151,0.1323,0.1366,0.134,0.1407,0.1624,0.1624,0.1624,0.1624,0.106,0.1077,0.1157,0.1205,0.1244,0.1229,0.1403,0.1552,0.1753,0.1833,0.1804,0.1687,0.1657,0.1706,0.1672,0.174,0.2035,0.2036,0.2036,0.1054,0.1097,0.1149,0.1221,0.1266,0.1305,0.1412,0.155,0.1883,0.2039,0.1752,0.1735,0.1532,0.1487,0.1527,0.148,0.1577,0,0]},{"header":{"parameterUnit":"m.s-1","parameterCategory":2,"la1":30.2992,"la2":30.254,"lo1":-89.0895,"lo2":-89.0443,"dy":0.0025,"dx":0.0025,"nx":19,"ny":19,"refTime":"2026-04-15T21:00:00:Z","depth":"0","parameterNumber":3,"parameterNumberName":"V-component_of_CURRENTS"},"data":[0,0,0,-0.0068,-0.0069,-0.0104,-0.0104,-0.0158,-0.0159,0,0,0,0,0,0,0,0,0,0,0,-0.0053,-0.0054,-0.0068,-0.0069,-0.0104,-0.0104,-0.0158,-0.0159,0,0,0,0,0,0,0,0,0,0,0,-0.0053,-0.0054,-0.0054,-0.0069,-0.0104,-0.0104,-0.0158,-0.0128,0,0,0,0,0,0,0,0,0,0,-0.0092,-0.0072,-0.0054,-0.0054,-0.0069,-0.0104,-0.0104,-0.0126,-0.013,-0.0147,0,-0.0156,0,-0.0164,-0.0163,-0.0164,0,0,0,-0.0063,-0.0069,-0.0088,-0.0054,-0.007,-0.0104,-0.0087,-0.0128,-0.0132,-0.0152,-0.0157,-0.0159,-0.0164,-0.0164,-0.0164,-0.0263,-0.0264,0,0,-0.0061,-0.0051,-0.0085,-0.0091,-0.0084,-0.0085,-0.0088,-0.013,-0.0132,-0.0157,-0.016,-0.0165,-0.0164,-0.0165,-0.0263,-0.0263,0,0,0,-0.0059,-0.0049,-0.0067,-0.0088,-0.0097,-0.0087,-0.0089,-0.0129,-0.0138,-0.0161,-0.0166,-0.0165,-0.0165,-0.0262,-0.0263,-0.0264,0,0,0,-0.0058,-0.0049,-0.0066,-0.0059,-0.0096,-0.0111,-0.0087,-0.0135,-0.014,-0.0166,-0.0165,-0.0166,-0.0261,-0.0263,-0.0262,-0.0185,0,0,0,-0.0051,-0.0048,-0.0056,-0.0058,-0.0078,-0.011,-0.0121,-0.0136,-0.0144,-0.0164,-0.0166,-0.0261,-0.0262,-0.0261,-0.0185,0.0004,0,0,0,-0.0034,-0.0046,-0.0056,-0.0076,-0.0077,-0.0123,-0.012,-0.0147,-0.0165,-0.0165,-0.0262,-0.0263,-0.0261,-0.0186,0.0001,0.0238,0.0274,0,0,-0.004,-0.0046,-0.0061,-0.0071,-0.0111,-0.0117,-0.0168,-0.0184,-0.0195,-0.0245,-0.0248,-0.0263,-0.0185,0.0003,0.0155,0.0195,0,0,0,-0.0058,-0.0067,-0.0082,-0.0108,-0.0142,-0.0166,-0.0198,-0.0215,-0.0251,-0.0214,-0.0292,-0.0241,-0.0121,0.0011,0.004,-0.0073,-0.0269,-0.0269,-0.0269,-0.0026,-0.0063,-0.0091,-0.0138,-0.0169,-0.0212,-0.0218,-0.0251,-0.0285,-0.0305,-0.0268,-0.0153,-0.0023,0.0005,-0.0122,-0.0338,-0.0338,-0.0338,-0.0338,-0.0029,-0.0038,-0.0097,-0.0136,-0.0177,-0.022,-0.0255,-0.0266,-0.0201,-0.0296,-0.0179,-0.0031,0.004,-0.0108,-0.0338,-0.0338,-0.0338,-0.0338,-0.0338,0.0007,-0.0001,-0.0043,-0.0095,-0.0135,-0.0189,-0.0107,-0.014,-0.0137,-0.0069,0.0203,0.0206,0.0117,0.0025,0.0026,0.0027,0.0028,0.0029,0.003,0.008,0.0032,0.0034,-0.0034,-0.0036,-0.0016,0.0029,0.0141,0.0303,0.0297,0.03,0.0143,-0.0038,-0.0005,0.0047,0.0044,0.0041,0.004,0.0039,0.0141,0.0137,0.0147,0.015,0.017,0.0311,0.0339,0.0655,0.0774,0.0921,0.0596,0.0523,0.0601,0.0577,0.0625,0.0838,0.0838,0.0838,0.0839,0.0221,0.0205,0.0273,0.0321,0.041,0.0475,0.0866,0.1047,0.1057,0.0991,0.085,0.0719,0.0692,0.0762,0.0734,0.0779,0.1026,0.1026,0.1026,0.0282,0.0296,0.0377,0.0411,0.0515,0.072,0.1088,0.1308,0.1201,0.1005,0.0639,0.0632,0.0394,0.0361,0.0426,0.0396,0.0455,0,0]}],[{"header":{"parameterUnit":"m.s-1","parameterCategory":2,"la1":30.2992,"la2":30.254,"lo1":-89.0895,"lo2":-89.0443,"dy":0.0025,"dx":0.0025,"nx":19,"ny":19,"refTime":"2026-04-15T21:00:00:Z","depth":"2","parameterNumber":2,"parameterNumberName":"U-component_of_CURRENTS"},"data":[0,0,0,0.036,0.0364,0.0546,0.0546,0.0509,0.0508,0,0,0,0,0,0,0,0,0,0,0,0.0286,0.0287,0.036,0.0365,0.0546,0.0546,0.0509,0.0508,0,0,0,0,0,0,0,0,0,0,0,0.0286,0.0287,0.0289,0.0365,0.0545,0.0546,0.0509,0.0438,0,0,0,0,0,0,0,0,0,0,0.0295,0.0287,0.0287,0.0289,0.0366,0.0545,0.0546,0.0437,0.0442,0.0352,0,0.0388,0,0.0448,0.05,0.0499,0,0,0,0.0358,0.0284,0.0315,0.0289,0.0368,0.0545,0.0462,0.0442,0.0447,0.0357,0.0389,0.039,0.0448,0.0499,0.0498,0.0365,0.0365,0,0,0.0348,0.0328,0.0313,0.0319,0.0419,0.0456,0.0468,0.0448,0.0457,0.0389,0.0391,0.0447,0.0498,0.0497,0.0366,0.0365,0,0,0,0.0324,0.0321,0.0359,0.0318,0.0374,0.0462,0.0475,0.0459,0.0468,0.0391,0.0447,0.0497,0.0496,0.0366,0.0366,0.0447,0,0,0,0.0317,0.0308,0.0355,0.0346,0.0376,0.0462,0.0486,0.047,0.0471,0.0447,0.0497,0.0495,0.0367,0.0366,0.0446,0.0517,0,0,0,0.0277,0.0304,0.0324,0.0344,0.0427,0.0465,0.0475,0.0473,0.0503,0.0499,0.0495,0.0367,0.0366,0.0445,0.0514,0.0674,0,0,0,0.0251,0.0297,0.0323,0.0391,0.0425,0.0467,0.0477,0.0517,0.0518,0.0497,0.0367,0.0366,0.0445,0.0512,0.0669,0.0744,0.077,0,0,0.0291,0.0302,0.034,0.0368,0.0419,0.0441,0.0478,0.0496,0.0456,0.0354,0.0354,0.0446,0.0514,0.0673,0.0666,0.0696,0,0,0,0.034,0.0364,0.0383,0.043,0.045,0.0481,0.0489,0.048,0.0455,0.0454,0.0396,0.0435,0.0535,0.0567,0.0589,0.0359,0.0359,0.036,0.036,0.0378,0.0394,0.0438,0.0451,0.0472,0.0494,0.0519,0.0489,0.0435,0.0428,0.0463,0.0586,0.0613,0.0633,0.0398,0.0398,0.0398,0.0398,0.0399,0.0419,0.0448,0.0467,0.0527,0.0535,0.0564,0.0539,0.0537,0.0577,0.0475,0.0569,0.06,0.0663,0.0404,0.0403,0.0402,0.0402,0.0401,0.0401,0.0429,0.0441,0.0499,0.0573,0.0642,0.0657,0.0731,0.0698,0.0683,0.0742,0.0854,0.0852,0.0731,0.0826,0.0827,0.0828,0.0828,0.0829,0.083,0.0423,0.0462,0.0545,0.0635,0.0719,0.0804,0.0863,0.0922,0.1007,0.0976,0.0976,0.0733,0.0719,0.0755,0.0845,0.0842,0.084,0.0839,0.0838,0.0428,0.0481,0.0569,0.0665,0.0843,0.0923,0.1013,0.1199,0.1304,0.1383,0.1123,0.1111,0.1124,0.1103,0.1147,0.1335,0.1335,0.1335,0.1335,0.0439,0.0468,0.0593,0.0725,0.088,0.0967,0.1127,0.1178,0.1261,0.1196,0.12,0.1049,0.1035,0.1032,0.1012,0.105,0.1212,0.1211,0.121,0.0446,0.0475,0.0559,0.0707,0.0892,0.0999,0.107,0.1031,0.1043,0.1189,0.1015,0.1358,0.1142,0.1118,0.1111,0.1081,0.114,0,0]},{"header":{"parameterUnit":"m.s-1","parameterCategory":2,"la1":30.2992,"la2":30.254,"lo1":-89.0895,"lo2":-89.0443,"dy":0.0025,"dx":0.0025,"nx":19,"ny":19,"refTime":"2026-04-15T21:00:00:Z","depth":"2","parameterNumber":3,"parameterNumberName":"V-component_of_CURRENTS"},"data":[0,0,0,-0.028,-0.0279,-0.0247,-0.0246,-0.0281,-0.0281,0,0,0,0,0,0,0,0,0,0,0,-0.0294,-0.0293,-0.028,-0.0279,-0.0247,-0.0246,-0.0281,-0.0282,0,0,0,0,0,0,0,0,0,0,0,-0.0294,-0.0294,-0.0293,-0.0279,-0.0247,-0.0246,-0.0281,-0.0288,0,0,0,0,0,0,0,0,0,0,-0.0311,-0.0317,-0.0294,-0.0293,-0.0278,-0.0247,-0.0246,-0.0288,-0.0288,-0.0315,0,-0.0304,0,-0.0291,-0.0285,-0.0285,0,0,0,-0.0286,-0.0317,-0.03,-0.0293,-0.0278,-0.0247,-0.0263,-0.0287,-0.0287,-0.0316,-0.0305,-0.0305,-0.0292,-0.0285,-0.0286,-0.0352,-0.0352,0,0,-0.0287,-0.0299,-0.0299,-0.0299,-0.0264,-0.0264,-0.0262,-0.0286,-0.0291,-0.0305,-0.0306,-0.0293,-0.0286,-0.0286,-0.0352,-0.0352,0,0,0,-0.0288,-0.0301,-0.0282,-0.0299,-0.0285,-0.0263,-0.0261,-0.029,-0.0281,-0.0306,-0.0293,-0.0286,-0.0287,-0.0351,-0.0352,-0.0371,0,0,0,-0.0289,-0.03,-0.0283,-0.0291,-0.0284,-0.0278,-0.0264,-0.0279,-0.0281,-0.0293,-0.0286,-0.0287,-0.0351,-0.0352,-0.037,-0.0315,0,0,0,-0.0296,-0.0301,-0.0293,-0.0292,-0.0273,-0.0277,-0.027,-0.0279,-0.0274,-0.0285,-0.0287,-0.0351,-0.0352,-0.0369,-0.0315,-0.0207,0,0,0,-0.0316,-0.0296,-0.0294,-0.0282,-0.0273,-0.0271,-0.0269,-0.0276,-0.0287,-0.0286,-0.0351,-0.0352,-0.0368,-0.0315,-0.0209,-0.0216,-0.0208,0,0,-0.0299,-0.0295,-0.029,-0.0286,-0.0287,-0.0276,-0.0301,-0.0312,-0.0311,-0.0349,-0.035,-0.037,-0.0315,-0.0207,-0.0264,-0.0253,0,0,0,-0.029,-0.0292,-0.029,-0.0294,-0.029,-0.0303,-0.0317,-0.0328,-0.0353,-0.0318,-0.0382,-0.0345,-0.0276,-0.0286,-0.0279,-0.0356,-0.0356,-0.0356,-0.0356,-0.03,-0.0302,-0.0311,-0.0319,-0.0323,-0.0337,-0.0338,-0.0359,-0.0381,-0.0397,-0.0373,-0.0313,-0.0332,-0.0324,-0.0419,-0.0419,-0.0419,-0.0419,-0.0419,-0.0307,-0.0314,-0.0338,-0.0342,-0.0358,-0.0377,-0.0382,-0.0387,-0.0346,-0.0399,-0.0333,-0.0322,-0.0316,-0.0421,-0.0421,-0.0421,-0.042,-0.042,-0.042,-0.0323,-0.0323,-0.0339,-0.0361,-0.037,-0.0379,-0.0312,-0.0321,-0.0314,-0.0273,-0.0208,-0.0209,-0.0247,-0.0224,-0.0224,-0.0223,-0.0222,-0.0222,-0.0221,-0.0321,-0.0337,-0.0351,-0.0364,-0.0359,-0.0318,-0.024,-0.0175,-0.0136,-0.017,-0.017,-0.0244,-0.025,-0.0233,-0.0211,-0.0213,-0.0214,-0.0215,-0.0216,-0.0313,-0.0326,-0.0344,-0.0345,-0.0302,-0.0208,-0.0125,0.0014,0.0084,0.0107,-0.01,-0.0106,-0.0064,-0.0073,-0.005,0.0019,0.0019,0.0019,0.0019,-0.0309,-0.0317,-0.0332,-0.0314,-0.0244,-0.0154,0.0062,0.0144,0.0122,0.0044,0.0043,-0.0061,-0.0071,-0.0035,-0.0044,-0.0022,0.0055,0.0055,0.0055,-0.031,-0.032,-0.0318,-0.0304,-0.0219,-0.0072,0.0113,0.0229,0.0148,0.0057,0.0058,0.002,-0.0143,-0.0155,-0.0109,-0.012,-0.009,0,0]}],[{"header":{"parameterUnit":"m.s-1","parameterCategory":2,"la1":30.2992,"la2":30.254,"lo1":-89.0895,"lo2":-89.0443,"dy":0.0025,"dx":0.0025,"nx":19,"ny":19,"refTime":"2026-04-15T21:00:00:Z","depth":"4","parameterNumber":2,"parameterNumberName":"U-component_of_CURRENTS"},"data":[0,0,0,0.007,0.007,0.0108,0.0108,0.0161,0.0161,0,0,0,0,0,0,0,0,0,0,0,0.0063,0.0063,0.007,0.007,0.0108,0.0108,0.0161,0.0161,0,0,0,0,0,0,0,0,0,0,0,0.0062,0.0063,0.0063,0.007,0.0108,0.0108,0.0161,0.0134,0,0,0,0,0,0,0,0,0,0,0.0099,0.0088,0.0063,0.0063,0.007,0.0108,0.0108,0.0133,0.0136,0.014,0,0.0141,0,0.0143,0.0163,0.0163,0,0,0,0.0084,0.0085,0.009,0.0063,0.007,0.0108,0.0095,0.0135,0.0138,0.0144,0.0142,0.0143,0.0144,0.0164,0.0164,0.0191,0.0191,0,0,0.0082,0.0077,0.0088,0.0092,0.0074,0.0094,0.0096,0.0137,0.014,0.0142,0.0145,0.0145,0.0164,0.0164,0.0191,0.0191,0,0,0,0.0067,0.0075,0.008,0.009,0.0091,0.0094,0.0097,0.0139,0.0139,0.0145,0.0145,0.0164,0.0164,0.0191,0.0191,0.0199,0,0,0,0.0066,0.0065,0.0078,0.0077,0.009,0.0115,0.0098,0.0136,0.0141,0.0145,0.0164,0.0165,0.0191,0.0191,0.0198,0.0196,0,0,0,0.0062,0.0064,0.0066,0.0076,0.0085,0.0114,0.0117,0.0138,0.014,0.0163,0.0165,0.0191,0.0191,0.0198,0.0195,0.026,0,0,0,0.006,0.0051,0.0066,0.0053,0.0084,0.0091,0.0117,0.0134,0.0153,0.0164,0.0191,0.0191,0.0198,0.0195,0.0259,0.0208,0,0,0,0.0044,0.0049,0.0039,0.0052,0.0044,0.0087,0.0098,0.0136,0.0157,0.018,0.0181,0.0199,0.0195,0.026,0.0214,0,0,0,0,0.003,0.0024,0.0024,0.0023,0.0036,0.0073,0.0105,0.0133,0.0177,0.0165,0.0199,0.0196,0.0237,0.0203,0.0191,0.0191,0.0191,0.0191,0.0191,0.002,0.0013,-0.0002,-0.0,0.0014,0.0065,0.0106,0.0151,0.0163,0.0189,0.0203,0.0254,0.0216,0.0206,0.0206,0.0206,0.0206,0.0206,0.0206,-0.001,-0.0019,-0.002,-0.004,-0.0002,0.0021,0.011,0.0147,0.0223,0.0209,0.025,0.0211,0.0207,0.0207,0.0207,0.0207,0.0207,0.0207,0.0207,-0.0014,-0.002,-0.0044,-0.0067,-0.0039,0.0014,0.0107,0.017,0.0232,0.0268,0.0275,0.0277,0.028,0.0307,0.0308,0.0308,0.0308,0.0308,0.0309,-0.0005,-0.0029,-0.0065,-0.0083,-0.0086,-0.0023,0.0117,0.0194,0.0267,0.028,0.0285,0.0289,0.0286,0.0286,0.0313,0.0312,0.0311,0.0311,0.0311,-0.0005,-0.0027,-0.008,-0.0106,-0.0105,-0.0053,0.0079,0.0235,0.0319,0.0348,0.0306,0.0305,0.0309,0.0305,0.0307,0.034,0.034,0.0339,0,-0.0001,-0.0017,-0.0089,-0.0128,-0.0118,-0.0061,0.0072,0.0184,0.0265,0.0239,0.0294,0.0239,0.024,0.0236,0.0233,0.0229,0,0,0,-0.0004,-0.0031,-0.0075,-0.0129,-0.013,-0.0006,0.0115,0.0168,0.0224,0.0314,0.0326,0.033,0.031,0.0325,0.033,0.0326,0.0328,0,0]},{"header":{"parameterUnit":"m.s-1","parameterCategory":2,"la1":30.2992,"la2":30.254,"lo1":-89.0895,"lo2":-89.0443,"dy":0.0025,"dx":0.0025,"nx":19,"ny":19,"refTime":"2026-04-15T21:00:00:Z","depth":"4","parameterNumber":3,"parameterNumberName":"V-component_of_CURRENTS"},"data":[0,0,0,0.0215,0.0215,0.0226,0.0226,0.0259,0.0259,0,0,0,0,0,0,0,0,0,0,0,0.0208,0.0208,0.0215,0.0215,0.0226,0.0226,0.0258,0.0259,0,0,0,0,0,0,0,0,0,0,0,0.0208,0.0208,0.0208,0.0215,0.0226,0.0226,0.0258,0.0246,0,0,0,0,0,0,0,0,0,0,0.0233,0.0224,0.0208,0.0208,0.0215,0.0226,0.0226,0.0245,0.0247,0.0258,0,0.0256,0,0.026,0.0261,0.0261,0,0,0,0.0216,0.0223,0.0225,0.0208,0.0215,0.0226,0.0222,0.0246,0.0248,0.026,0.0257,0.0258,0.0261,0.0262,0.0262,0.0326,0.0327,0,0,0.0216,0.0212,0.0224,0.0226,0.0214,0.0221,0.0222,0.0247,0.0248,0.0257,0.0259,0.0261,0.0262,0.0262,0.0326,0.0326,0,0,0,0.0213,0.0212,0.0213,0.0225,0.0227,0.0222,0.0222,0.0246,0.0247,0.0259,0.0261,0.0262,0.0262,0.0325,0.0326,0.031,0,0,0,0.0213,0.021,0.0213,0.0211,0.0226,0.0235,0.0222,0.0245,0.0248,0.0261,0.0262,0.0263,0.0325,0.0326,0.0309,0.0245,0,0,0,0.0208,0.021,0.021,0.0211,0.0216,0.0234,0.0236,0.0245,0.0249,0.0261,0.0263,0.0325,0.0326,0.0309,0.0247,0.0176,0,0,0,0.0207,0.0196,0.0209,0.0206,0.0216,0.0237,0.0236,0.0245,0.0254,0.0262,0.0325,0.0326,0.0308,0.0248,0.0178,0.0239,0,0,0,0.019,0.0194,0.0194,0.0206,0.0227,0.0236,0.0278,0.0281,0.0278,0.0317,0.0318,0.0309,0.0247,0.0177,0.0301,0,0,0,0,0.0188,0.019,0.0198,0.0215,0.0236,0.0276,0.0291,0.0309,0.0322,0.0288,0.0335,0.0295,0.0251,0.0296,0.0331,0.0331,0.0331,0.0331,0.0331,0.0155,0.018,0.0198,0.0237,0.0264,0.0309,0.032,0.035,0.0352,0.036,0.0304,0.0262,0.0317,0.0359,0.0359,0.0359,0.0359,0.0359,0.0359,0.0143,0.0154,0.0214,0.0236,0.0295,0.0334,0.037,0.0361,0.0305,0.034,0.0299,0.0305,0.0358,0.0358,0.0358,0.0358,0.0359,0.0359,0.0359,0.0117,0.013,0.0155,0.0213,0.0276,0.0328,0.0319,0.0282,0.0256,0.0198,0.0197,0.0217,0.0188,0.0158,0.0158,0.0157,0.0157,0.0156,0.0156,0.007,0.0104,0.0123,0.0189,0.0229,0.025,0.0236,0.0199,0.0148,0.0137,0.0145,0.0192,0.0199,0.0176,0.0147,0.0149,0.015,0.0151,0.0151,0.0027,0.0037,0.0068,0.0101,0.019,0.0208,0.0198,0.0152,0.0081,0.0051,0.0116,0.0121,0.0105,0.0113,0.0086,0.0029,0.003,0.003,0,-0.0013,-0.0002,0.0034,0.0085,0.0138,0.0187,0.0166,0.0144,0.0076,0.0066,0.0049,0.0121,0.0126,0.0112,0.0119,0.009,0,0,0,-0.0039,-0.0023,-0.0003,0.0059,0.013,0.0155,0.016,0.0138,0.0105,0.0101,0.0044,0.0041,0.0189,0.0122,0.0106,0.0114,0.0074,0,0]}]]